SCP
1 1 1 1 2 2 2 2 2 2 2 2 2 1 1 1 1 1 1 1 1 1 1 1 1 1 1 1 1 1 1 1 1 1 1 0 1 0 0 0 0 0 0
1 1 1 1 2 2 2 2 2 2 2 2 2 1 1 1 1 1 1 1 1 1 1 1 1 1 1 1 1 1 1 1 1 1 1 1 1 0 0 0 0 0 0
1 1 1 1 1 2 2 2 2 2 2 2 2 1 1 1 1 1 1 1 1 1 1 1 1 1 1 1 1 1 1 1 1 1 1 1 1 1 1 0 1 1 0
1 1 1 1 1 1 1 2 2 2 2 2 2 2 1 1 1 1 1 1 1 1 1 1 1 1 1 1 1 1 1 1 1 1 1 1 1 1 1 1 1 1 1
1 1 1 1 1 1 1 2 2 2 2 2 2 2 2 1 1 1 1 1 1 1 1 1 1 1 1 1 1 1 1 1 1 1 1 1 1 1 1 1 1 1 1
1 1 1 1 1 1 1 1 2 2 2 2 2 2 2 2 1 1 1 1 1 1 1 1 1 1 1 1 1 1 1 1 1 1 1 1 1 1 1 1 1 1 0
1 1 1 1 1 1 1 1 1 2 2 2 1 1 1 1 1 1 1 1 1 1 1 1 1 1 1 1 1 1 1 1 1 1 1 1 1 1 1 1 1 1 1
1 1 1 1 1 1 1 1 1 1 2 2 1 1 1 1 1 1 1 1 1 1 1 1 1 1 1 1 1 1 1 1 1 1 1 1 1 1 1 1 1 1 1
1 1 1 1 1 1 1 1 1 1 1 1 1 1 1 1 1 1 1 1 1 1 1 1 1 1 1 1 1 1 1 1 1 1 1 1 1 1 1 1 1 1 1
1 1 1 1 1 1 1 1 1 1 1 1 1 1 1 1 1 1 1 1 1 1 1 1 1 1 1 1 1 1 1 1 1 1 1 1 1 1 1 1 1 1 1
1 1 1 1 1 1 1 1 1 1 1 1 1 1 1 1 1 1 1 1 1 1 1 1 1 1 1 1 1 1 1 1 1 1 1 1 1 1 1 1 1 1 1
1 1 1 1 1 1 1 1 1 1 1 1 1 1 1 1 1 1 1 1 1 1 1 1 1 1 1 1 1 1 1 1 1 1 1 1 1 1 1 1 1 1 1
0 0 0 1 1 1 1 1 1 1 1 1 1 1 1 1 1 1 1 1 1 1 1 1 1 1 1 1 1 1 1 1 1 1 1 1 1 1 1 1 1 1 1
0 0 0 0 1 1 1 1 1 1 1 1 1 1 1 1 1 1 1 1 1 1 1 1 1 1 1 1 1 1 1 1 1 1 1 1 1 1 1 1 1 0 0
0 0 0 0 1 1 1 1 1 1 1 1 1 1 1 1 1 1 1 1 1 1 1 1 1 1 1 1 1 1 1 1 1 1 1 1 0 0 0 0 0 0 0
0 0 0 1 1 1 1 1 1 1 1 1 1 1 1 1 1 1 1 1 1 1 1 1 1 1 0 0 0 0 0 1 1 1 1 0 0 0 0 0 0 0 0
0 0 0 1 1 1 1 1 1 1 1 1 1 1 1 1 1 1 1 1 1 1 1 1 1 1 0 0 0 0 0 1 1 1 1 0 0 0 0 0 0 0 0
0 1 1 1 1 1 1 1 0 1 1 1 1 1 1 1 1 1 1 1 1 1 1 1 1 1 0 0 0 0 0 0 1 1 1 1 0 0 0 0 0 0 0
1 1 0 0 0 0 1 1 0 0 0 0 0 1 1 1 1 1 1 1 1 1 1 1 1 1 0 0 0 0 0 0 0 1 1 0 0 0 0 0 0 0 0
1 0 0 0 0 0 0 0 0 0 0 0 0 1 1 1 1 1 1 1 1 1 1 1 1 1 0 0 0 0 0 0 0 0 0 0 0 0 0 0 0 0 0
0 0 0 0 0 0 0 0 0 0 0 0 1 1 1 1 1 1 1 1 1 1 1 1 1 0 0 0 0 0 0 0 0 0 0 0 0 0 0 0 0 0 0
0 0 0 0 0 0 0 0 0 0 0 0 1 1 1 1 1 1 1 1 1 1 1 1 0 0 0 0 0 0 0 0 0 0 0 0 0 0 0 0 0 0 0
0 0 0 0 0 0 0 0 0 0 0 0 1 1 1 1 1 1 1 1 1 1 1 0 0 0 0 0 0 0 0 0 0 0 0 0 0 0 0 0 0 0 0
0 0 0 0 0 0 0 0 0 0 0 0 1 1 1 1 1 1 1 1 1 1 1 0 0 0 0 0 0 0 0 0 0 0 0 0 0 0 0 0 0 0 0
0 0 0 0 0 0 0 0 0 0 0 0 1 1 1 1 1 1 1 1 1 0 0 0 0 0 0 0 0 0 0 0 0 0 0 0 0 0 0 0 0 0 0
0 0 0 0 0 0 0 0 0 0 0 0 1 1 1 1 1 0 0 0 0 0 0 0 0 0 0 0 0 0 0 0 0 0 0 0 0 0 0 0 0 0 0
Wind_Speed
9 7 8 9 9 8 7 7 6 6 5 4 4 3 3 2 2 2 3 3 2 3 2 2 2 1 1 1 2 1 2 2 1 1 1 2 3 3 2 2 2 2 3
10 8 7 8 9 8 8 7 6 5 4 3 2 2 2 2 2 2 3 3 3 3 3 2 2 2 2 2 2 2 1 2 1 1 1 1 1 2 3 2 3 2 2
10 9 7 6 7 8 7 6 6 5 4 3 2 2 2 2 2 3 3 3 3 3 2 3 2 2 2 2 2 2 2 2 1 1 1 1 1 1 1 2 2 2 1
9 9 9 7 7 7 7 5 5 5 4 3 3 4 3 3 3 3 3 4 3 3 3 3 3 2 2 2 3 3 2 2 2 1 1 1 0 1 1 1 1 2 2
9 9 9 8 7 7 7 6 5 4 4 3 2 2 2 2 1 2 2 3 3 4 4 3 3 2 2 2 2 2 2 1 2 1 1 2 1 1 1 1 1 1 1
9 9 8 9 7 6 6 7 6 4 4 4 3 2 2 2 2 2 2 3 3 3 3 3 3 2 2 1 1 1 2 1 2 2 1 1 1 1 1 1 1 1 1
8 8 8 9 8 8 6 6 6 5 4 4 3 3 2 2 2 2 2 2 2 2 2 2 2 2 2 2 2 2 2 2 2 2 2 2 2 1 1 1 1 1 1
7 7 8 8 7 7 6 6 6 5 5 4 4 3 3 2 2 2 1 2 1 2 3 3 3 2 2 3 2 2 3 2 3 3 3 2 2 1 1 1 1 1 1
5 6 7 7 7 7 6 5 6 5 4 4 3 4 4 3 2 2 2 2 1 2 3 3 3 3 2 2 2 2 2 2 2 2 2 2 2 2 2 1 1 1 2
6 5 5 5 5 5 5 4 4 4 3 3 3 3 3 3 3 3 3 2 2 1 2 3 3 2 2 2 2 2 2 2 2 2 2 2 2 2 2 1 1 1 1
6 5 5 5 4 4 4 4 4 4 3 3 3 2 3 4 3 3 3 3 2 2 2 2 3 3 2 2 2 2 2 2 3 3 3 3 3 2 2 1 1 1 1
6 5 5 5 4 5 4 3 3 3 3 2 2 2 2 3 3 3 2 3 2 3 2 2 3 3 3 2 3 3 2 2 3 3 2 3 3 3 2 2 2 2 1
6 6 5 4 4 4 4 3 1 2 2 1 1 2 2 2 3 3 2 3 3 3 3 3 3 3 3 3 3 3 3 3 2 2 2 2 2 3 2 2 2 2 2
5 5 5 4 4 4 3 2 2 1 1 1 1 2 2 2 3 3 3 3 3 3 3 3 3 3 3 2 2 2 3 2 2 2 2 2 2 2 2 3 3 3 2
3 4 4 3 3 3 2 1 1 1 0 1 2 2 2 2 3 3 3 3 3 4 3 3 3 4 3 3 2 3 3 2 2 2 2 2 2 2 2 2 1 2 2
4 4 3 2 2 2 1 1 1 1 1 1 1 2 2 3 3 3 3 3 3 3 3 3 4 4 3 3 3 2 2 2 3 2 2 3 3 3 4 4 3 2 2
4 3 2 2 1 1 1 1 2 1 1 1 1 1 2 2 2 2 2 3 3 3 3 4 4 3 3 4 4 4 3 3 3 3 2 3 2 3 3 4 5 4 5
3 2 1 1 1 1 1 1 2 2 2 2 2 2 3 3 2 2 2 3 3 4 4 4 4 4 4 5 5 5 5 3 3 3 3 3 2 2 2 3 3 3 4
3 2 1 1 1 1 2 2 2 2 2 2 2 3 3 3 3 3 2 2 3 3 4 4 4 4 4 6 6 6 4 3 4 4 4 4 3 3 3 3 3 3 3
2 1 1 1 1 2 2 3 3 3 3 3 3 2 2 3 4 3 2 2 3 4 4 4 4 4 4 6 7 6 4 3 3 3 3 3 4 4 4 3 3 4 3
2 1 0 1 1 1 2 3 3 3 3 3 3 2 2 3 3 2 2 3 3 3 4 4 4 4 5 7 8 7 4 3 3 3 3 2 5 6 5 5 4 5 4
0 0 1 1 1 1 2 3 3 3 3 3 2 2 2 3 3 2 2 3 3 4 3 3 3 3 3 5 7 8 7 5 4 3 2 2 5 7 7 6 7 6 4
1 1 1 1 1 1 2 3 3 3 3 3 2 2 3 3 2 3 3 3 3 3 2 2 2 2 2 3 6 8 8 8 4 2 2 3 5 6 7 9 9 6 4
2 2 2 2 2 2 3 3 3 3 3 3 3 3 3 3 2 2 3 2 2 2 2 2 2 2 2 2 2 3 3 4 4 3 2 4 6 6 6 5 5 5 5
2 2 2 3 3 3 3 3 3 3 3 3 3 3 3 3 2 2 2 3 2 2 3 2 2 2 2 2 3 3 3 3 3 3 3 3 3 4 4 4 4 4 4
3 3 3 3 3 3 3 3 3 3 3 3 3 3 3 3 2 3 2 2 2 2 3 3 2 1 1 2 2 3 4 4 3 3 4 4 4 4 4 3 3 3 4
Wind_Direction
156 146 144 144 137 134 139 146 149 149 152 158 171 170 178 179 165 167 159 161 184 197 190 198 181 186 171 228 272 261 256 246 257 262 246 231 211 197 196 199 190 179 178
149 138 134 135 135 137 144 145 145 149 161 157 168 167 171 181 178 166 159 174 195 205 192 185 197 181 180 210 238 246 253 252 226 234 242 226 224 229 206 186 193 188 178
150 142 142 141 142 137 141 149 145 148 152 143 164 157 149 176 173 167 170 190 197 196 198 189 202 198 186 197 220 231 232 250 246 232 259 269 247 242 203 207 196 169 158
150 150 147 147 143 136 137 128 138 143 147 156 182 178 176 183 182 173 177 184 189 190 196 200 200 208 193 191 208 211 238 233 255 238 233 236 231 269 257 243 194 176 179
154 157 154 154 152 144 145 139 132 140 145 155 176 179 181 168 157 154 161 179 188 198 199 190 201 198 205 201 218 203 218 229 250 258 255 259 251 257 245 245 231 274 213
155 150 150 151 147 143 148 144 144 146 152 157 167 181 170 146 147 155 168 191 185 188 198 187 188 184 194 194 232 226 210 244 266 276 278 260 243 251 259 262 233 224 223
148 149 150 147 148 149 154 150 152 152 154 168 173 178 174 166 165 178 180 187 181 168 174 175 169 181 191 192 208 209 218 233 259 268 273 264 258 260 260 260 267 264 248
143 139 139 140 152 151 153 153 152 154 162 179 191 182 182 191 196 198 193 200 201 174 167 170 169 192 202 204 204 210 220 226 241 255 265 278 278 275 272 260 281 289 274
130 133 133 135 143 142 146 148 151 157 167 177 188 185 195 201 197 199 209 213 216 188 165 175 185 196 203 215 210 211 223 228 235 250 252 267 284 290 280 269 230 248 270
119 112 110 109 122 131 134 131 139 153 161 172 195 199 196 202 204 206 209 211 219 203 173 181 190 197 204 215 222 227 222 217 235 242 241 249 272 279 291 299 274 242 242
104 94 91 99 103 107 127 135 138 147 165 180 191 197 203 207 213 213 210 214 216 200 205 190 190 196 206 209 216 231 220 216 231 244 242 246 255 274 278 281 287 288 273
107 103 91 90 92 88 82 79 119 147 157 168 184 188 194 199 209 211 213 210 209 203 210 204 203 206 200 203 211 235 230 222 226 232 245 249 251 255 269 280 286 282 276
102 99 89 78 75 73 71 61 99 121 123 141 185 181 185 200 207 205 207 208 208 210 210 205 207 215 208 203 216 226 235 230 227 220 234 257 261 255 251 253 268 275 279
94 92 90 79 70 63 63 60 44 82 126 158 201 214 207 211 215 212 210 215 214 216 208 208 214 212 218 213 223 227 239 235 225 223 225 237 236 245 254 252 253 264 278
104 92 82 72 68 56 41 32 38 33 45 195 210 220 232 224 216 213 207 220 225 226 220 213 220 217 213 218 227 239 227 229 236 234 218 213 215 215 232 257 268 276 281
136 111 97 83 65 49 10 8 10 16 319 243 229 220 224 225 213 211 210 214 227 230 222 225 224 226 228 204 206 236 241 231 228 236 231 213 208 200 209 225 234 234 248
119 109 100 84 55 7 1 353 330 310 282 265 251 245 242 234 224 219 212 213 218 225 223 227 226 215 213 198 203 227 237 236 224 224 237 245 222 203 213 223 225 231 237
103 96 84 62 42 348 345 320 300 278 267 260 254 248 252 250 243 230 218 227 227 228 228 232 227 211 213 199 204 225 230 235 229 225 224 226 234 234 226 238 230 228 232
79 65 37 347 340 328 327 299 291 281 273 274 272 257 247 254 249 241 235 236 234 231 231 232 226 219 211 201 203 210 227 227 230 227 222 211 210 220 217 234 245 248 260
82 62 14 355 352 337 316 303 291 294 291 290 288 279 271 265 258 248 248 251 246 239 235 234 229 227 221 200 198 201 228 232 240 234 214 217 208 199 208 229 249 254 260
76 64 352 305 312 307 299 297 300 301 302 296 288 283 275 267 259 246 248 248 250 248 239 236 237 229 220 194 196 198 220 236 245 243 222 202 196 203 213 227 242 247 257
63 350 327 321 302 294 296 296 303 306 304 300 287 281 274 268 261 247 245 248 245 244 236 232 236 232 207 193 199 204 218 235 246 248 232 211 212 215 224 230 239 245 250
301 291 293 284 280 280 280 292 300 298 302 303 289 267 264 266 257 238 237 236 237 242 238 225 230 234 218 190 197 204 220 230 237 252 254 247 241 234 235 233 233 233 237
286 291 289 281 274 276 286 288 291 297 299 294 281 262 262 261 254 257 253 235 234 243 239 231 235 227 205 183 185 207 220 229 235 247 256 249 244 247 244 234 221 221 227
283 281 279 276 276 284 287 287 294 295 289 280 273 266 258 258 254 252 274 255 233 230 240 245 236 234 227 205 204 214 225 223 223 225 245 249 244 240 234 226 220 217 221
277 268 271 272 272 270 276 280 279 273 272 270 266 262 262 254 242 240 264 329 269 220 216 229 233 227 193 186 200 219 227 229 218 220 240 243 245 244 240 235 227 220 223